Погода Готня

Погода Готня : погода сейчас, прогноз погоды и архив. Всё, что Вы хотите узнать о погоде Готня!

Поиск расширенной информации на нашем сайте:

Другие новости

Новости СМИ2

Главная страница сайта

Новости сайта

02.10.2013

Напоминаем, что на нашем новом сайте вы можете получить высокодетализированные прогнозы погоды по пунктам России, СНГ и мира (включающие важные для авиации метеовеличины, такие как направление и скорость ветра, видимость, явления погоды, количество и форма облачности, нижняя и верхняя граница облачности), а также ознакомиться с разнообразными материалами по авиационной метеорологии и подборкой полезных ссылок на эту тему.

Сайт Метеоцентр.Азия посвящён разработке технологий оптимизации авиаметеорологического обслуживания, включая проектирование и перспективное создание нескольких автоматизированных авиаметеорологических систем:
- система выпуска высокодетальных прогностических карт явлений погоды для нижнего воздушного пространства по России и ближнему зарубежью;
- система верификации прогнозов TAF (выпускаемых синоптиками официальных АМСГ РФ и ближнего зарубежья) и AUTOTAF (выпускаемых сайтом Метеоцентр.Азия) - выявление ошибок, онлайн-сопоставление с фактической погодой METAR, автоматическое внесение коррективов в прогнозы при резком отклонении фактической погоды от прогноза, подсчёт оправдываемости прогнозов по элементам и в целом;
- система обработки, анализа и отображения авиаметеорологической информации для применения провайдерами метеорологической информации.


Погода Готня - сегодня

Время (UTC), дата Ветер
(°,м/с) 
Видим.   Явления Облачность Т
(°С)
Тd
(°С)
f(%) Тe
(°С)
Pmin
(гПа)
dP
(гПа)
Po
(мм)
O2
(г/м3)
Тmin Tmax R s Состояние
почвы
06 21.03.17 330 (СЗ) 20000 м    6/0 средняя 
[Ac trans]
+1.9 -0.3 85 1012.9  1.2  739  296  +1.3         
09 21.03.17 330 (СЗ) 20000 м    6/6 600 м кучево-дожд. 
[Cb calv]
+5.4 +1.6 76 +4  1014  1.4  740  292           
12 21.03.17 350 (С) 20000 м    3/3 600 м 
[Cu hum]
+7.9 +0.4 59 +7  1014.3  0.6  740  290           
15 21.03.17 340 (С) 20000 м    3/0 верхняя 
[Ci ing]
+8.2 -2.2 48 +8  1015.1  0.7  741  290           
18 21.03.17 110 (В) 10 км    ясно 
+2.9 +0.2 82 +4  1017.4  1.8  742  296    +8.5       
21 21.03.17 200 (Ю) 10 км    ясно 
+1 -0.4 90 +2  1018.8  1.1  743  298           
00 22.03.17 210 (ЮЗ) 10 км    ясно 
+0.6 -0.8 90 1019.5  0.6  743  299           
03 22.03.17 190 (Ю) 10 км    ясно 
-0.4 -1.6 92 -1  1020.5  0.9  744  300  -0.7         
06 22.03.17 180 (Ю) 20000 м    10/10 600 м 
[Sc]
+2.4 +0.8 89 +3  1021.5  1.2  745  297  -0.7         
09 22.03.17 220 (ЮЗ) 20000 м    8/8 600 м 
[Sc]
+9.4 +0.4 53 +8  1020.5  -0.1  745  290           
12 22.03.17 220 (ЮЗ) 20000 м    3/0 верхняя 
[Ci ing]
+12.6 +3.8 55 +12  1019.4  -0.7  744  286           
15 22.03.17 210 (ЮЗ) 20000 м    3/0 верхняя 
[Ci ing]
+12.8 +3.8 54 +13  1018.8  -0.6  744  286           
18 22.03.17 200 (Ю) 10 км    ясно 
+8.4 +4.1 74 +8  1020.2  0.8  745  290    +13.4       
21 22.03.17 210 (ЮЗ) 10 км    ясно 
+6.9 +4.1 82 +7  1020.4  0.2  745  292           
00 23.03.17 210 (ЮЗ) 10 км    ясно 
+5.8 +3.9 88 +5  1020.6  0.1  745  293           
03 23.03.17 220 (ЮЗ) 10 км    ясно 
+4 +2.2 88 +3  1020.4  -0.4  744  295  +3.8         
06 23.03.17 230 (ЮЗ) 20000 м    10/10 600 м кучево-дожд. 
[Cb calv]
+5.2 +1.7 78 +4  1020.7  0.4  745  294  +3.8         
09 23.03.17 290 (З) 20000 м  слаб. дождь  10/10 300 м 
[Frnb|Ns]
+7.2 +5.1 86 +6  1022.1  1.5  746  292           
12 23.03.17 330 (СЗ) 4000 м  слаб. морось{дождь}  10/10 300 м 
[St]
+7.4 +6.5 94 +7  1022.9  0.9  747  292           
15 23.03.17 030 (СВ) 20000 м  {морось}  10/10 600 м кучево-дожд. 
[Cb calv]
+7.5 +5.8 89 +7  1024  747  292      0.7     
18 23.03.17 020 (С) 10 км  {морось}  4/4 600 м кучево-дожд. 
[Cb calv]
+4.5 +2.8 89 +5  1025.3  0.9  748  296    +7.8  0.7     
21 23.03.17 060 (СВ) 10 км    10/10 600 м 
[St]
+3.2 +1.9 91 +4  1025.5  0.1  748  298           
00 24.03.17 070 (В) 2000 м  дымка  10/10 300 м 
[St]
+2.3 +1.5 94 +3  1025.6  -0.1  748  299           
03 24.03.17 120 (ЮВ) 2000 м  дымка  10/10 300 м 
[St]
+1.3 +0.5 94 +1  1024.8  -0.8  747  300  +1.2         
06 24.03.17 150 (ЮВ) 4000 м  слаб. морось  10/10 300 м 
[St]
+4.1 +2.9 92 +3  1022.7  -1.7  746  296  +1.2    0.0     
Время (UTC), дата Ветер
(°,м/с) 
Видим.   Явления Облачность Т
(°С)
Тd
(°С)
f(%) Тe
(°С)
Pmin
(гПа)
dP
(гПа)
Po
(мм)
O2
(г/м3)
Тmin Tmax R s Состояние
почвы

Для получения пояснительной информации подведите курсор к названию столбца.

ПОГОДА Готня - архив

Всё, что Вы хотите узнать о погоде Готня - удобно и подробно!

Выберите нужную дату (начиная с 1 января 2015* года) и нажмите кнопку "Найти".
Будут отображены архивные сводки погоды по пункту Готня, начиная с указанной даты.


Отображать данные в формате CSV (для использования в таблицах Excel)


Внимание! Наш архив погоды предназначен исключительно для личного некоммерческого использования в познавательных целях. Если Вам необходимы официальные справки о состоянии погоды (для производственных, юридических, коммерческих и т.п. целей), обращайтесь в органы Росгидромета.

*Примечание: данная дата относится к архиву по метеостанциям СССР (Россия, СНГ, Балтия).
Архив по метеостанциям Зарубежной Европы и Азии (кроме Китая) хранится 10 дней, по другим регионам земного шара (Китай, Африка, Америка, Австралия, Океания) - 1 день.

Готня - район местоположения метеостанции


Название, широта, долгота, высота метеостанции:
Готня 50.8°ш. 35.8°д. 226 м над ур. моря [Российская Федерация]

Дополнительная информация

В oтличие oт бoльшинства пoгoдных сайтoв мы публикуем пoдрoбную метеoинфoрмацию в детальнoм прoфессиoнальнoм фoрмате.

Характеристики температуры и влажнoсти вoздуха измеряются на высoте 2 м в тени вдали oт зданий и деревьев.
Скoрoсть ветра измеряется на высoте 10 м (на урoвне рoста челoвека скoрoсть ветра ниже в 1.5-2 раза). Если метеoстанция нахoдится в гoрoде или в лесу, тo скoрoсть ветра занижена на 2-4 м/с пo сравнению с oткрытым местoм. Скoрoсть ветра над акватoриями крупных рек и oзёр, а также на вершинах хoлмoв на 2-5 м/с выше, чем в oбычных услoвиях.
Атмoсфернoе давление в разных тoчках местнoсти мoжет значительнo oтличаться oт давления на метеoстанции, в зависимoсти oт услoвий рельефа (при пoдъёме на 10 м давление пoнижается примернo на 1 мм рт.ст.).